GW3896 Weather Reports


time (UTC)temp
C
wind
direction
speed
KPH
gust
KPH
rain 1hr
cm
rain 24hr
cm
rain mn
cm
humidity
%
barometer
mb
20260505124841 20 261 4.8 8.0 0.00 0.05 0.05 64 1010.6
20260505124338 20 248 9.7 12.9 0.00 0.05 0.05 64 1010.6
20260505123834 20 218 6.4 9.7 0.00 0.05 0.05 64 1010.6
20260505123330 19 246 6.4 8.0 0.00 0.05 0.05 65 1010.4
20260505122826 19 252 8.0 12.9 0.00 0.05 0.05 65 1010.3
20260505122324 19 226 3.2 4.8 0.00 0.05 0.05 65 1010.3
20260505121820 19 187 3.2 3.2 0.00 0.05 0.05 65 1010.1
20260505121318 20 139 4.8 4.8 0.00 0.05 0.05 65 1010.0
20260505120814 20 242 8.0 9.7 0.00 0.05 0.05 65 1009.9
20260505120310 19 223 11.3 14.5 0.00 0.05 0.05 64 1009.6
20260505115808 19 250 3.2 3.2 0.00 0.05 0.05 66 1010.0
20260505115306 19 215 4.8 4.8 0.00 0.05 0.05 66 1009.9
20260505114803 18 233 9.7 16.1 0.00 0.05 0.05 67 1009.7
20260505114259 18 224 3.2 4.8 0.00 0.05 0.05 67 1009.7
20260505113756 18 264 6.4 9.7 0.00 0.05 0.05 67 1009.9
20260505113252 18 239 3.2 4.8 0.00 0.05 0.05 68 1009.7
20260505112748 18 254 4.8 8.0 0.00 0.05 0.05 68 1010.1
20260505112246 18 227 8.0 12.9 0.00 0.05 0.05 68 1009.6
20260505111746 18 268 3.2 3.2 0.00 0.05 0.05 69 1009.7
20260505111242 18 256 4.8 4.8 0.00 0.05 0.05 69 1009.7
20260505110738 18 254 4.8 8.0 0.00 0.05 0.05 69 1009.5
20260505110236 18 216 4.8 8.0 0.00 0.05 0.05 69 1009.7
20260505102211 17 254 1.6 3.2 0.00 0.05 0.05 75 1009.9
20260505101710 17 247 3.2 3.2 0.00 0.05 0.05 77 1009.5
20260505101206 17 245 1.6 1.6 0.00 0.05 0.05 78 1009.3
20260505100702 17 216 1.6 1.6 0.00 0.05 0.05 77 1009.4
20260505100159 17 234 3.2 3.2 0.00 0.05 0.05 79 1009.2
20260505095655 17 254 3.2 3.2 0.00 0.05 0.05 78 1009.5
20260505095153 16 239 3.2 3.2 0.00 0.05 0.05 79 1009.4
20260505094648 16 245 1.6 1.6 0.00 0.05 0.05 79 1009.4
20260505094145 17 232 3.2 3.2 0.00 0.05 0.05 79 1009.3
20260505093641 17 270 4.8 4.8 0.00 0.05 0.05 78 1009.2
20260505093139 17 253 6.4 8.0 0.00 0.05 0.05 79 1009.1
20260505092636 17 244 0.0 1.6 0.18 0.05 0.05 78 1009.3
20260505092135 17 269 4.8 8.0 0.30 0.05 0.05 77 1009.0
20260505091631 18 244 1.6 3.2 0.13 0.03 0.03 73 1009.0
20260505091129 18 228 3.2 3.2 0.00 0.00 0.00 70 1008.9
20260505090626 18 248 8.0 9.7 0.00 0.00 0.00 71 1008.9
20260505090124 18 276 9.7 12.9 0.00 0.00 0.00 71 1008.7
20260505085621 18 248 3.2 4.8 0.00 0.00 0.00 70 1008.9
20260505085120 19 198 6.4 8.0 0.00 0.00 0.00 67 1008.6
20260505084617 19 240 3.2 3.2 0.00 0.00 0.00 66 1008.6
20260505084116 19 201 4.8 9.7 0.00 0.00 0.00 66 1008.5
20260505083613 19 242 6.4 9.7 0.00 0.00 0.00 66 1008.4
20260505083109 19 249 4.8 8.0 0.00 0.00 0.00 66 1008.7
20260505082605 19 258 16.1 17.7 0.00 0.00 0.00 65 1008.5
20260505082102 19 212 8.0 11.3 0.00 0.00 0.00 65 1008.5
20260505081558 19 274 4.8 8.0 0.00 0.00 0.00 65 1008.4
20260505081055 19 246 6.4 9.7 0.00 0.00 0.00 66 1008.3
20260505080551 19 256 11.3 16.1 0.00 0.00 0.00 65 1008.4
20260505080049 19 286 8.0 9.7 0.00 0.00 0.00 65 1008.3
20260505075544 19 232 1.6 3.2 0.00 0.00 0.00 65 1008.3
20260505075041 19 217 4.8 4.8 0.00 0.00 0.00 65 1008.2
20260505074538 19 258 6.4 9.7 0.00 0.00 0.00 64 1008.3
20260505074035 19 264 6.4 9.7 0.00 0.00 0.00 64 1008.2
20260505073533 19 227 14.5 20.9 0.00 0.00 0.00 63 1008.1
20260505073032 20 255 3.2 4.8 0.00 0.00 0.00 63 1008.1
20260505072526 20 254 11.3 12.9 0.00 0.00 0.00 63 1008.1
20260505072023 20 272 9.7 12.9 0.00 0.00 0.00 63 1008.2
20260505071518 20 250 1.6 1.6 0.00 0.00 0.00 63 1007.8
20260505071017 20 214 11.3 12.9 0.00 0.00 0.00 63 1007.9
20260505070514 20 252 4.8 4.8 0.00 0.00 0.00 63 1008.1
20260505070010 20 270 8.0 14.5 0.00 0.00 0.00 63 1008.2
20260505065506 20 197 8.0 11.3 0.00 0.00 0.00 63 1008.0
20260505065002 20 256 4.8 9.7 0.00 0.00 0.00 62 1008.3
20260505064459 20 272 4.8 8.0 0.00 0.00 0.00 63 1008.0
20260505063958 20 215 4.8 8.0 0.00 0.00 0.00 62 1008.3
20260505063454 20 236 1.6 3.2 0.00 0.00 0.00 63 1008.3
20260505062950 20 243 8.0 9.7 0.00 0.00 0.00 62 1008.4
20260505062448 20 250 6.4 8.0 0.00 0.00 0.00 63 1008.4
20260505061944 19 256 8.0 11.3 0.00 0.00 0.00 63 1008.3
20260505061443 20 238 4.8 9.7 0.00 0.00 0.00 62 1008.5
20260505060940 20 252 8.0 11.3 0.00 0.00 0.00 62 1008.5
20260505060437 20 266 8.0 12.9 0.00 0.00 0.00 62 1008.2
20260505055933 20 234 4.8 4.8 0.00 0.00 0.00 62 1008.4
20260505055429 20 241 8.0 12.9 0.00 0.00 0.00 62 1008.4
20260505054926 19 240 8.0 9.7 0.00 0.00 0.00 62 1008.5
20260505054423 19 238 8.0 11.3 0.00 0.00 0.00 63 1008.4
20260505053921 19 252 4.8 8.0 0.00 0.00 0.00 64 1008.7
20260505053418 19 225 4.8 8.0 0.00 0.00 0.00 64 1008.7
20260505052915 19 231 1.6 1.6 0.00 0.00 0.00 64 1008.6
20260505052412 19 202 3.2 3.2 0.00 0.00 0.00 65 1008.5
20260505051909 19 221 4.8 4.8 0.00 0.00 0.00 65 1008.4
20260505051406 18 217 1.6 3.2 0.00 0.00 0.00 67 1008.4
20260505050904 19 187 1.6 1.6 0.00 0.00 0.00 66 1008.9
20260505050402 19 227 1.6 1.6 0.00 0.00 0.00 67 1008.5
20260505041330 17 218 0.0 1.6 0.00 0.00 0.00 74 1008.1
20260505040827 16 241 0.0 0.0 0.00 0.00 0.00 81 1008.2
20260505040324 15 231 0.0 0.0 0.00 0.00 0.00 88 1008.0
20260505035821 14 297 1.6 3.2 0.00 0.00 0.00 89 1008.0
20260505035317 14 218 0.0 0.0 0.00 0.00 0.00 89 1008.2
20260505034814 14 287 0.0 0.0 0.00 0.00 0.00 89 1008.2
20260505034311 14 282 0.0 0.0 0.00 0.00 0.00 89 1008.2
20260505033808 14 302 0.0 1.6 0.00 0.00 0.00 89 1008.1
20260505033305 14 321 0.0 1.6 0.00 0.00 0.00 88 1008.2
20260505032803 15 21 1.6 3.2 0.00 0.00 0.00 88 1007.9
20260505032259 14 320 0.0 1.6 0.00 0.00 0.00 88 1008.0
20260505031756 15 326 1.6 1.6 0.00 0.00 0.00 87 1008.1
20260505031252 15 300 0.0 1.6 0.00 0.00 0.00 87 1008.3
20260505030749 15 308 1.6 1.6 0.00 0.00 0.00 86 1007.9
20260505030246 15 320 0.0 1.6 0.00 0.00 0.00 85 1008.2
20260505025741 15 273 0.0 0.0 0.00 0.00 0.00 84 1008.3
20260505025240 16 237 0.0 1.6 0.00 0.00 0.00 82 1008.2
20260505024738 16 199 0.0 0.0 0.00 0.00 0.00 80 1008.1
20260505024235 17 226 0.0 0.0 0.00 0.00 0.00 78 1008.0
20260505023732 17 226 0.0 0.0 0.00 0.00 0.00 74 1008.1
20260505023229 17 216 0.0 0.0 0.00 0.00 0.00 75 1008.2
20260505022726 17 226 1.6 1.6 0.00 0.00 0.00 75 1007.8
20260505022223 17 206 0.0 0.0 0.00 0.00 0.00 75 1008.0
20260505021720 17 233 1.6 1.6 0.00 0.00 0.00 75 1007.9
20260505021217 16 211 1.6 3.2 0.00 0.00 0.00 79 1008.0
20260505020712 16 222 0.0 0.0 0.00 0.00 0.00 79 1007.9
20260505020208 17 221 0.0 1.6 0.00 0.00 0.00 78 1007.9
20260505015706 17 233 1.6 1.6 0.00 0.00 0.00 78 1007.8
20260505015202 17 224 0.0 0.0 0.00 0.00 0.00 77 1007.8
20260505014659 17 246 0.0 0.0 0.00 0.00 0.00 77 1007.7
20260505014156 17 220 0.0 0.0 0.00 0.00 0.00 74 1007.7
20260505013653 18 228 0.0 0.0 0.00 0.00 0.00 73 1007.8
20260505013151 18 192 0.0 1.6 0.00 0.00 0.00 72 1007.8
20260505012649 18 210 0.0 1.6 0.00 0.00 0.00 71 1007.8
20260505012146 18 215 0.0 0.0 0.00 0.00 0.00 71 1007.8
20260505011641 19 219 0.0 0.0 0.00 0.00 0.00 70 1007.7
20260505011139 19 156 1.6 3.2 0.00 0.00 0.00 70 1007.5
20260505010634 19 221 0.0 0.0 0.00 0.00 0.00 69 1007.8
20260505010131 19 217 0.0 0.0 0.00 0.00 0.00 69 1007.8
20260505005627 19 211 1.6 1.6 0.00 0.00 0.00 68 1007.8
20260505005124 19 214 1.6 1.6 0.00 0.00 0.00 68 1007.6
20260505004621 19 195 3.2 3.2 0.00 0.00 0.00 68 1007.6
20260505004117 20 212 1.6 1.6 0.00 0.00 0.00 68 1007.5
20260505003614 20 194 1.6 1.6 0.00 0.00 0.00 67 1007.7
20260505003112 20 204 1.6 1.6 0.00 0.00 0.00 66 1007.8
20260505002608 20 210 0.0 1.6 0.00 0.00 0.00 65 1007.8
20260505002107 20 211 1.6 1.6 0.00 0.00 0.00 65 1007.7
20260505001603 21 202 4.8 4.8 0.00 0.00 0.00 64 1007.9
20260505001101 21 222 0.0 0.0 0.00 0.00 0.00 64 1007.9
20260505000558 21 190 1.6 1.6 0.00 0.00 0.00 63 1008.1
20260505000056 21 190 3.2 3.2 0.00 0.00 0.00 63 1007.9
20260504235552 21 222 0.0 1.6 0.00 0.00 0.00 62 1007.9
20260504235048 21 217 0.0 0.0 0.00 0.00 0.00 62 1007.9
20260504234545 21 212 0.0 1.6 0.00 0.00 0.00 62 1008.0
20260504234042 21 217 0.0 0.0 0.00 0.00 0.00 61 1008.1
20260504233537 22 223 1.6 3.2 0.00 0.00 0.00 60 1008.2
20260504233035 22 196 1.6 1.6 0.00 0.00 0.00 60 1008.0
20260504232532 22 232 3.2 3.2 0.00 0.00 0.00 58 1008.2
20260504232030 22 213 3.2 4.8 0.00 0.00 0.00 58 1008.2
20260504231526 22 256 3.2 4.8 0.00 0.00 0.00 58 1008.3
20260504231022 22 181 3.2 3.2 0.00 0.00 0.00 57 1008.1
20260504230518 22 238 3.2 3.2 0.00 0.00 0.00 57 1008.2
20260504230012 22 229 8.0 9.7 0.00 0.00 0.00 57 1008.4
20260504225509 23 165 3.2 8.0 0.00 0.00 0.00 57 1008.5
20260504225006 23 238 3.2 3.2 0.00 0.00 0.00 57 1008.6
20260504224503 22 262 9.7 11.3 0.00 0.00 0.00 57 1008.6
20260504224000 22 259 4.8 4.8 0.00 0.00 0.00 58 1008.7
20260504223456 22 250 12.9 14.5 0.00 0.00 0.00 58 1008.7
20260504222951 22 220 11.3 12.9 0.00 0.00 0.00 57 1008.7
20260504222449 22 248 4.8 8.0 0.00 0.00 0.00 58 1008.9
20260504221947 22 246 12.9 17.7 0.00 0.00 0.00 57 1009.0
20260504221444 21 244 11.3 14.5 0.00 0.00 0.00 58 1008.9
20260504220941 21 237 4.8 8.0 0.00 0.00 0.00 59 1009.1
20260504220437 21 266 8.0 11.3 0.00 0.00 0.00 58 1009.1
20260504215934 22 268 12.9 16.1 0.00 0.00 0.00 58 1008.9
20260504215431 22 249 9.7 12.9 0.00 0.00 0.00 58 1008.9
20260504214927 22 238 3.2 3.2 0.00 0.00 0.00 58 1008.7
20260504214424 22 242 9.7 12.9 0.00 0.00 0.00 58 1008.9
20260504213921 22 252 6.4 11.3 0.00 0.00 0.00 59 1008.6
20260504213416 22 292 4.8 4.8 0.00 0.00 0.00 58 1008.8
20260504212914 22 321 16.1 22.5 0.00 0.00 0.00 56 1008.8
20260504212409 22 237 4.8 4.8 0.00 0.00 0.00 58 1008.7
20260504211908 22 223 1.6 1.6 0.00 0.00 0.00 58 1008.8
20260504211404 22 267 8.0 9.7 0.00 0.00 0.00 58 1008.7
20260504210901 22 265 8.0 8.0 0.00 0.00 0.00 58 1008.7
20260504210358 22 206 4.8 4.8 0.00 0.00 0.00 58 1008.8
20260504205855 22 217 4.8 4.8 0.00 0.00 0.00 57 1008.7
20260504205353 22 261 12.9 16.1 0.00 0.00 0.00 57 1009.0
20260504204850 22 239 9.7 12.9 0.00 0.00 0.00 57 1008.9
20260504204349 22 270 19.3 20.9 0.00 0.00 0.00 57 1009.0
20260504203848 22 262 14.5 20.9 0.00 0.00 0.00 56 1009.2
20260504203344 23 247 14.5 20.9 0.00 0.00 0.00 56 1008.9
20260504202840 23 212 8.0 9.7 0.00 0.00 0.00 55 1008.8
20260504202338 23 263 8.0 12.9 0.00 0.00 0.00 55 1008.6
20260504201834 23 285 8.0 8.0 0.00 0.00 0.00 54 1008.7
20260504201332 22 266 6.4 8.0 0.00 0.00 0.00 56 1008.7
20260504200829 22 235 9.7 14.5 0.00 0.00 0.00 56 1008.6
20260504200325 23 244 3.2 3.2 0.00 0.00 0.00 56 1008.8
20260504195822 22 249 3.2 3.2 0.00 0.00 0.00 57 1008.7
20260504195317 22 288 4.8 8.0 0.00 0.00 0.00 58 1008.7
20260504194814 21 240 4.8 4.8 0.00 0.00 0.00 58 1009.0
20260504194311 21 207 4.8 4.8 0.00 0.00 0.00 57 1009.3
20260504193807 21 198 3.2 3.2 0.00 0.00 0.00 58 1009.0
20260504193304 21 239 3.2 3.2 0.00 0.00 0.00 59 1009.0
20260504192803 21 235 16.1 20.9 0.00 0.00 0.00 57 1009.3
20260504192300 22 274 8.0 9.7 0.00 0.00 0.00 57 1009.2
20260504191759 22 72 4.8 4.8 0.00 0.00 0.00 56 1009.3
20260504191256 23 247 11.3 16.1 0.00 0.00 0.00 55 1009.4
20260504190751 22 238 6.4 9.7 0.00 0.00 0.00 55 1009.3
20260504190248 22 290 9.7 12.9 0.00 0.00 0.00 55 1009.4
20260504185744 22 214 8.0 11.3 0.00 0.00 0.00 55 1009.5
20260504185241 22 258 4.8 4.8 0.00 0.00 0.00 58 1009.5
20260504184737 22 208 8.0 11.3 0.00 0.00 0.00 57 1009.6
20260504184233 21 42 8.0 11.3 0.00 0.00 0.00 58 1009.5
20260504183729 21 237 4.8 8.0 0.00 0.00 0.00 58 1009.7
20260504183226 22 212 8.0 9.7 0.00 0.00 0.00 57 1009.9
20260504182724 22 245 9.7 12.9 0.00 0.00 0.00 58 1009.9
20260504182221 22 205 11.3 16.1 0.00 0.00 0.00 57 1009.7
20260504181719 22 224 11.3 17.7 0.00 0.00 0.00 57 1009.7
20260504181216 22 264 8.0 14.5 0.00 0.00 0.00 57 1009.7
20260504180715 22 235 3.2 4.8 0.00 0.00 0.00 57 1009.5
20260504180213 21 251 3.2 3.2 0.00 0.00 0.00 58 1009.9
20260504175710 21 295 16.1 17.7 0.00 0.00 0.00 58 1010.0
20260504175207 21 273 9.7 11.3 0.00 0.00 0.00 58 1009.6
20260504174705 21 299 17.7 17.7 0.00 0.00 0.00 57 1009.7
20260504174203 21 250 8.0 11.3 0.00 0.00 0.00 58 1009.9
20260504173659 21 206 11.3 14.5 0.00 0.00 0.00 57 1010.0
20260504173156 21 232 4.8 8.0 0.00 0.00 0.00 58 1010.1
20260504172652 21 259 6.4 9.7 0.00 0.00 0.00 57 1010.0
20260504172149 20 286 16.1 24.1 0.00 0.00 0.00 59 1010.0
20260504171645 21 183 11.3 12.9 0.00 0.00 0.00 58 1010.3
20260504171143 21 261 11.3 16.1 0.00 0.00 0.00 58 1010.3
20260504170639 20 245 4.8 8.0 0.00 0.00 0.00 59 1010.0
20260504170137 21 255 11.3 12.9 0.00 0.00 0.00 60 1010.3
20260504151022 16 192 3.2 4.8 0.00 0.00 0.00 66 1011.9
20260504150519 16 238 4.8 8.0 0.00 0.00 0.00 66 1012.3
20260504140945 16 252 12.9 16.1 0.00 0.00 0.00 63 1012.5
20260504140442 16 255 11.3 14.5 0.00 0.00 0.00 63 1012.4